Montreal Mirabel, Quebec

11:22 AM EDT on May 23, 2017 (GMT -0400)
Montreal Mirabel

Weather History for CYMX - January, 2015

Change the Weather History Date:

Monday, January 5, 2015

  Actual Average Record
Temperature  
Mean Temperature 10 °F -  
Max Temperature 23 °F 20 °F 44 °F (2007)
Min Temperature -4 °F 7 °F -16 °F (2016)
Degree Days  
Heating Degree Days 56    
Moisture  
Dew Point -2 °F    
Average Humidity 69    
Maximum Humidity 86    
Minimum Humidity 60    
Precipitation  
Precipitation 0.00 in - - ()
Sea Level Pressure  
Sea Level Pressure 30.00 in    
Wind  
Wind Speed 11 mph ()    
Max Wind Speed 20 mph    
Max Gust Speed 37 mph    
Visibility 9.2 miles    
Events Snow    
Averages and records for this station are not official NWS values.
T = Trace of Precipitation, MM = Missing Value Source: Averaged Metar Reports

Daily Weather History Graph

Daily Weather History Graph

Search for Another Location

Airport or City:

Trip Planner

Search our weather history database for the weather conditions in past years. The results will help you decide how hot, cold, wet, or windy it might be!

Date:

Astronomy

Jan. 05, 2015 Rise Set
Actual Time 7:36 AM EST 4:26 PM EST
Civil Twilight 7:02 AM EST 5:00 PM EST
Nautical Twilight 6:25 AM EST 5:37 PM EST
Astronomical Twilight 5:49 AM EST 6:13 PM EST
Moon 5:23 PM EST (1/5) 7:27 AM EST (1/5)
Length of Visible Light 9h 57m
Length of Day
8h 49m
Full, 100% of the Moon is Illuminated
Jan 5
Full
Jan 13
Last Quarter
Jan 20
New
Jan 26
First Quarter
Feb 3
Full

Hourly Weather History & Observations

Time (EST) Temp. Windchill Dew Point Humidity Pressure Visibility Wind Dir Wind Speed Gust Speed Precip Events Conditions
12:00 AM 23.0 °F 10.1 °F 19.4 °F 86% 29.60 in 10.0 mi WSW 15.0 mph 21.9 mph N/A Snow Light Snow Showers
1:00 AM 21.2 °F 11.7 °F 17.6 °F 86% 29.63 in 4.0 mi West 8.1 mph 19.6 mph N/A Snow Light Snow Showers
1:48 AM 19.4 °F 6.6 °F 14.0 °F 80% 29.67 in 25.0 mi WSW 12.7 mph 23.0 mph N/A   Overcast
2:00 AM 19.4 °F 5.5 °F 12.2 °F 74% 29.67 in 25.0 mi WSW 15.0 mph 27.6 mph N/A   Overcast
2:51 AM 17.6 °F 5.0 °F 12.2 °F 79% 29.70 in 8.0 mi WSW 11.5 mph 20.7 mph N/A Snow Light Snow Showers
3:00 AM 17.6 °F 3.7 °F 12.2 °F 79% 29.71 in 6.0 mi WSW 13.8 mph 23.0 mph N/A Snow Light Snow Showers
4:00 AM 15.8 °F 0.9 °F 8.6 °F 73% 29.73 in 8.0 mi WSW 15.0 mph 32.2 mph N/A Snow Light Snow Showers
5:00 AM 14.0 °F 0.5 °F 6.8 °F 73% 29.78 in 8.0 mi West 11.5 mph 26.5 mph N/A Snow Light Snow Showers
6:00 AM 8.6 °F -9.5 °F -0.4 °F 67% 29.83 in 15.0 mi West 17.3 mph 32.2 mph N/A   Scattered Clouds
7:00 AM 6.8 °F -11.3 °F -2.2 °F 67% 29.89 in 15.0 mi West 16.1 mph 31.1 mph N/A   Mostly Cloudy
8:00 AM 5.0 °F -12.3 °F -5.8 °F 61% 29.95 in 15.0 mi West 13.8 mph 36.8 mph N/A   Mostly Cloudy
9:00 AM 3.2 °F -17.6 °F -7.6 °F 61% 29.99 in 15.0 mi West 19.6 mph 34.5 mph N/A Snow Low Drifting Snow
10:00 AM 3.2 °F -15.9 °F -5.8 °F 66% 30.03 in 15.0 mi West 16.1 mph 26.5 mph N/A Snow Low Drifting Snow
11:00 AM 5.0 °F -13.0 °F -5.8 °F 61% 30.04 in 20.0 mi WSW 15.0 mph 25.3 mph N/A Snow Low Drifting Snow
11:31 AM 3.2 °F -15.3 °F -5.8 °F 66% 30.04 in 6.0 mi WSW 15.0 mph 26.5 mph N/A Snow Light Snow Showers
12:00 PM 3.2 °F -15.9 °F -5.8 °F 66% 30.06 in 5.0 mi West 16.1 mph 26.5 mph N/A Snow Light Snow Showers
1:00 PM 3.2 °F -15.9 °F -5.8 °F 66% 30.09 in 3.0 mi WSW 16.1 mph 26.5 mph N/A Snow Light Snow Showers
2:00 PM 3.2 °F -16.5 °F -5.8 °F 66% 30.12 in 3.0 mi West 17.3 mph 28.8 mph N/A Snow Light Snow Showers
3:00 PM 1.4 °F -15.3 °F -7.6 °F 66% 30.16 in 4.0 mi West 11.5 mph 25.3 mph N/A Snow Light Snow Showers
4:00 PM -0.4 °F -16.7 °F -9.4 °F 66% 30.21 in 6.0 mi West 10.4 mph 25.3 mph N/A Snow Low Drifting Snow
5:00 PM -0.4 °F -14.7 °F -11.2 °F 60% 30.26 in 25.0 mi West 8.1 mph 17.3 mph N/A   Partly Cloudy
6:00 PM -2.2 °F -15.6 °F -11.2 °F 66% 30.29 in 25.0 mi WSW 6.9 mph - N/A   Partly Cloudy
7:00 PM -2.2 °F -15.6 °F -11.2 °F 66% 30.31 in 25.0 mi WSW 6.9 mph - N/A   Partly Cloudy
8:00 PM -2.2 °F -15.6 °F -11.2 °F 66% 30.33 in 25.0 mi WSW 6.9 mph - N/A   Partly Cloudy
9:00 PM -2.2 °F -16.8 °F -11.2 °F 66% 30.34 in 25.0 mi WSW 8.1 mph - N/A   Partly Cloudy
10:00 PM -4.0 °F -12.4 °F -13.0 °F 65% 30.32 in 25.0 mi West 3.5 mph - N/A   Partly Cloudy
11:00 PM -4.0 °F -14.6 °F -13.0 °F 65% 30.31 in 25.0 mi WNW 4.6 mph - N/A   Partly Cloudy